Find Starlink 3501

NORAD ID: 51748 Int'l Des: 2022-016 Owner: SPXS Country: US Constellation: starlink operational
LEOCIRCULAR

Live Position

Loading 3D Globe...

About Starlink 3501

Description loading...

Upcoming Passes

Passes for default location (London). Set your location on the main map for personalized predictions.

Altitude History

Loading altitude history...

Two-Line Element Set

1 51748U 22016AL 26106.26637394 -.00000583 00000-0 -18571-4 0 9995
2 51748 53.2148 140.4319 0001196 73.8708 286.2415 15.08829625229379
Epoch: Apr 16, 2026 • Age: 6 hours

Current Status

Altitude 552.5 km
Velocity 7.58 km/s
Sub-Earth Point -37.13°S, 33.6°W
Launch Date Feb 21, 2022
Age 4.1 years
Type internet

Technical Details

Classification Payload
Mass 297.00 kg
Dry Mass 275.00 kg
Total Mass 297.00 kg
Length 0.20 m
Diameter 2.80 m
Span 9.00 m
Shape Box + pan
Manufacturer SPXS
Bus Type Starlink
Phase Status In Orbit
Owner/State SPXS/US

Most Searched